sat.trackr.live / text

‹ back to catalog

GSAT-8 (GAGAN/PRN 127)

NORAD 37605 · 2011-022A

PAYLOAD ACTIVE UNKNOWN

§ Identity

Operator
Country
IND
Launch date
2011-05-20
Launch site
FRGUI
Launch vehicle
Mass (kg)
RCS (m²)
6.31

Purposes: comms, nav

External: N2YO · Heavens-Above · Gunter

§ Orbital elements

Epoch: 2026-05-25T04:00:23.251392Z

Period
1,436.12 min
Inclination
2.0739°
Eccentricity
0.0002885
Mean motion
1.00270088 rev/d
Perigee alt
35,774.9 km
Apogee alt
35,799.2 km
Semi-major
42,165.2 km
B*
0.0000e+0
RAAN
82.0911°
Arg perigee
226.5813°
Mean anomaly
49.2516°
Rev number
5,298

§ Raw data

GSAT-8 (GAGAN/PRN 127)1 37605U 11022A   26145.16693578  .00000083  00000+0  00000+0 0  99992 37605   2.0739  82.0911 0002885 226.5813  49.2516  1.00270088 52982

JSON: /api/v1/satellites/37605 · /tle

For live sub-satellite position, see the globe view (requires WebGL).

§ Visibility from observer

Set your observer location to see the next 7 days of passes ≥ 10°. The values pass through the URL so the page stays shareable.

No JS? Fill the form by hand. The geolocation button needs JavaScript.